TimeEST,TemperatureF,Dew PointF,Humidity,Sea Level PressureIn,VisibilityMPH,Wind Direction,Wind SpeedMPH,Gust SpeedMPH,PrecipitationIn,Events,Conditions,WindDirDegrees,DateUTC
12:53 AM,21.0,14.0,74,29.88,3.0,West,24.2,32.2,0.00,Snow,Light Snow,280,2013-02-01 05:53:00
1:02 AM,21.2,12.2,68,29.85,2.5,West,21.9,33.4,0.00,Snow,Light Snow,280,2013-02-01 06:02:00
1:09 AM,21.2,12.2,68,29.85,7.0,West,24.2,33.4,0.00,Snow,Light Snow,280,2013-02-01 06:09:00
1:22 AM,21.2,12.2,68,29.85,7.0,WNW,21.9,29.9,0.00,Snow,Light Snow,290,2013-02-01 06:22:00
1:53 AM,21.0,12.9,71,29.89,6.0,West,26.5,34.5,0.00,Snow,Light Snow,280,2013-02-01 06:53:00
2:04 AM,21.2,12.2,68,29.87,4.0,WNW,21.9,35.7,0.00,Snow,Light Snow,290,2013-02-01 07:04:00
2:15 AM,21.2,15.8,80,29.87,1.8,WNW,23.0,35.7,0.00,Snow,Light Snow,290,2013-02-01 07:15:00
2:43 AM,19.4,15.8,86,29.89,3.0,WNW,24.2,35.7,0.00,Snow,Light Snow,300,2013-02-01 07:43:00
2:47 AM,19.4,15.8,86,29.89,1.5,WNW,29.9,35.7,0.00,Snow,Light Snow,290,2013-02-01 07:47:00
2:53 AM,19.0,15.1,85,29.92,0.8,WNW,28.8,34.5,0.00,Snow,Light Snow,290,2013-02-01 07:53:00
3:04 AM,19.4,14.0,80,29.89,2.0,WNW,25.3,33.4,0.00,Snow,Light Snow,290,2013-02-01 08:04:00
3:11 AM,19.4,14.0,80,29.89,5.0,WNW,25.3,35.7,0.00,Snow,Light Snow,300,2013-02-01 08:11:00
3:27 AM,19.4,14.0,80,29.90,2.5,WNW,25.3,36.8,0.00,Snow,Light Snow,290,2013-02-01 08:27:00
3:33 AM,19.4,15.8,86,29.90,3.0,WNW,25.3,32.2,0.00,Snow,Light Snow,300,2013-02-01 08:33:00
3:53 AM,21.0,12.0,68,29.94,8.0,WNW,28.8,35.7,0.00,Snow,Light Snow,300,2013-02-01 08:53:00
4:53 AM,21.0,12.9,71,29.97,7.0,WNW,28.8,35.7,0.00,Snow,Light Snow,300,2013-02-01 09:53:00
5:53 AM,19.9,10.9,68,30.01,9.0,WNW,29.9,38.0,0.00,Snow,Light Snow,290,2013-02-01 10:53:00
6:16 AM,19.4,14.0,80,30.01,1.8,WSW,23.0,36.8,0.00,Snow,Light Snow,250,2013-02-01 11:16:00
6:22 AM,17.6,12.2,79,30.01,0.8,WSW,25.3,32.2,0.00,Snow,Light Snow,240,2013-02-01 11:22:00
6:26 AM,17.6,12.2,79,30.01,1.0,WSW,25.3,32.2,0.00,Snow,Light Snow,240,2013-02-01 11:26:00
6:28 AM,17.6,14.0,86,30.02,0.8,WSW,25.3,33.4,0.00,Snow,Light Snow,240,2013-02-01 11:28:00
6:31 AM,17.6,14.0,86,30.02,0.5,WSW,25.3,33.4,0.00,Snow,Light Snow,240,2013-02-01 11:31:00
6:53 AM,16.0,12.9,88,30.06,0.8,WSW,24.2,33.4,0.00,Snow,Light Snow,240,2013-02-01 11:53:00
7:01 AM,15.8,12.2,86,30.04,0.8,WSW,28.8,35.7,0.00,Snow,Light Snow,240,2013-02-01 12:01:00
7:46 AM,15.8,12.2,86,30.07,1.0,WSW,28.8,38.0,0.00,Snow,Light Snow,240,2013-02-01 12:46:00
7:53 AM,15.1,10.9,84,30.11,1.2,WSW,28.8,36.8,0.00,Snow,Light Snow,250,2013-02-01 12:53:00
8:33 AM,15.8,12.2,86,30.11,0.5,WSW,26.5,-,0.00,Fog-Snow,Snow,240,2013-02-01 13:33:00
8:53 AM,14.0,12.0,92,30.15,0.2,WSW,24.2,33.4,0.00,Fog-Snow,Snow,240,2013-02-01 13:53:00
10:40 AM,15.8,10.4,79,30.18,0.8,WSW,23.0,33.4,0.01,Snow,Light Snow,250,2013-02-01 15:40:00
10:51 AM,15.8,10.4,79,30.19,1.0,WSW,23.0,29.9,0.01,Snow,Light Snow,250,2013-02-01 15:51:00
10:53 AM,16.0,10.0,77,30.22,1.0,WSW,24.2,29.9,0.01,Snow,Light Snow,250,2013-02-01 15:53:00
11:10 AM,15.8,10.4,79,30.19,3.0,WSW,26.5,32.2,0.00,Snow,Light Snow,250,2013-02-01 16:10:00
11:53 AM,17.1,10.0,74,30.24,3.0,WSW,21.9,29.9,0.00,Snow,Light Snow,250,2013-02-01 16:53:00
12:53 PM,16.0,9.0,74,30.25,5.0,WSW,23.0,-,0.00,Snow,Light Snow,240,2013-02-01 17:53:00
1:06 PM,17.6,10.4,73,30.21,6.0,WSW,21.9,27.6,0.00,Snow,Light Snow,240,2013-02-01 18:06:00
1:15 PM,17.6,10.4,73,30.22,8.0,WSW,20.7,28.8,0.00,Snow,Light Snow,240,2013-02-01 18:15:00
1:30 PM,17.6,8.6,68,30.22,9.0,WSW,21.9,28.8,0.00,,Overcast,240,2013-02-01 18:30:00
1:53 PM,17.1,9.0,71,30.25,10.0,WSW,19.6,26.5,0.00,,Overcast,240,2013-02-01 18:53:00
2:53 PM,18.0,9.0,68,30.25,10.0,WSW,20.7,27.6,0.00,,Overcast,240,2013-02-01 19:53:00
3:53 PM,18.0,8.1,65,30.27,10.0,WSW,23.0,28.8,N/A,,Overcast,240,2013-02-01 20:53:00
4:53 PM,17.1,8.1,68,30.28,10.0,SW,19.6,-,N/A,,Mostly Cloudy,230,2013-02-01 21:53:00
5:53 PM,16.0,7.0,68,30.29,10.0,SW,19.6,27.6,N/A,,Overcast,230,2013-02-01 22:53:00
6:53 PM,16.0,6.1,65,30.31,10.0,WSW,17.3,-,N/A,,Overcast,240,2013-02-01 23:53:00
7:53 PM,16.0,6.1,65,30.32,10.0,SW,17.3,-,N/A,,Overcast,230,2013-02-02 00:53:00
8:53 PM,15.1,6.1,68,30.32,10.0,SW,17.3,24.2,N/A,,Overcast,230,2013-02-02 01:53:00
9:53 PM,15.1,6.1,68,30.33,10.0,SW,20.7,25.3,N/A,,Overcast,230,2013-02-02 02:53:00
10:53 PM,15.1,6.1,68,30.32,10.0,SW,17.3,-,N/A,,Overcast,230,2013-02-02 03:53:00
11:53 PM,15.1,7.0,70,30.32,10.0,SW,13.8,-,0.00,,Overcast,230,2013-02-02 04:53:00